Voltar ao catálogo

OPS 4682 DEB

AtivoPO
NORAD 38422·DEBRIS·🇺🇸 United States

Lançado Apr 3, 1965 de Vandenberg Space Force Base

Loading…

Próximas Passagens (próximas 24 horas)

TLE

AtualizadoSource: Space-Track

Época: Sep 14, 2026, 07:22 UTC

1 38422U 65027EB  26257.30752407 -.00000251  00000-0 -88596-3 0  9998
2 38422  90.2734  26.5281 0034962 184.6406 175.4396 12.97674281674686

Acompanhe OPS 4682 DEB em tempo real com AllMySat

Download on the App Store